EHI
8 11 16 22 30 37 38 35 31 30 29 21 14 12 10 7 5 4 3 1 1 2 3 2 2 2 1 1 1 1 1 2 3 3 1 0 0 1 0 0 1 2 3
12 15 19 25 32 38 40 37 34 32 30 23 14 11 9 7 6 6 3 1 1 2 3 2 1 1 1 2 3 3 2 2 3 3 1 0 0 1 0 1 2 2 3
18 21 25 29 33 38 40 38 38 37 34 27 18 13 10 7 7 8 5 1 1 1 2 2 2 2 3 3 4 4 5 4 3 3 2 1 0 0 0 1 2 3 3
21 25 30 31 33 38 40 40 42 43 41 34 27 20 14 9 8 9 6 2 1 1 1 1 2 3 3 3 3 4 5 4 3 3 4 3 2 1 1 1 2 2 2
19 24 29 31 32 36 40 43 45 48 47 42 37 30 20 13 10 10 9 6 4 3 2 2 3 3 3 3 3 3 4 3 3 3 4 6 6 5 4 3 2 2 2
18 22 28 32 33 35 40 44 47 50 50 47 43 36 28 21 17 14 14 11 8 6 5 4 4 4 3 3 3 4 4 4 4 4 5 8 9 9 9 6 4 3 3
19 24 31 37 39 40 43 48 51 52 50 48 44 38 32 26 21 17 16 14 10 7 5 5 5 5 4 4 4 5 5 5 6 6 8 10 12 13 12 9 6 5 5
21 25 32 40 43 45 50 56 58 55 51 48 44 39 32 23 18 17 15 14 12 8 6 7 7 7 6 6 7 7 7 6 6 8 11 12 13 13 13 11 9 8 7
22 25 31 38 42 45 50 55 57 54 49 46 42 38 31 22 17 17 18 19 17 12 10 10 9 10 11 11 12 11 8 7 7 8 11 12 11 11 11 10 11 10 9
27 30 35 39 40 42 46 50 52 50 45 41 39 36 32 28 24 23 26 28 26 20 15 12 10 11 13 15 16 13 9 7 6 7 8 9 9 9 9 10 11 11 10
34 38 42 41 41 43 46 48 50 50 46 42 40 38 37 36 32 31 34 36 34 28 21 15 12 11 13 15 14 11 8 5 4 4 5 7 8 8 8 10 10 10 10
42 45 48 48 48 48 47 47 48 50 49 47 47 45 43 42 40 40 43 44 40 33 26 21 16 14 14 13 9 6 4 3 2 3 4 5 6 7 7 8 8 8 8
49 52 55 57 57 54 50 47 46 47 47 48 51 51 48 47 47 47 48 49 45 38 32 26 21 18 16 11 6 3 3 3 3 4 3 3 3 4 5 6 7 7 7
54 55 58 62 64 62 58 54 52 50 49 50 52 50 48 48 49 50 50 49 46 42 38 31 24 20 15 9 6 5 5 6 7 5 3 1 2 3 4 6 8 9 7
56 55 56 60 64 65 63 60 58 58 57 55 53 50 48 48 50 52 52 50 47 45 43 38 29 20 13 9 8 8 9 9 9 7 3 1 1 1 2 4 7 8 7
56 55 53 53 55 59 61 59 58 61 61 59 56 54 52 53 55 55 55 54 51 48 46 42 34 24 14 9 8 9 11 12 11 9 5 2 1 2 2 2 3 3 4
55 55 53 49 49 52 57 58 58 59 60 59 56 55 55 56 57 57 56 55 52 50 47 43 37 28 17 8 4 6 12 16 15 11 7 3 3 5 5 4 3 3 3
55 54 51 48 48 52 56 58 57 57 56 55 54 54 54 55 55 55 54 53 52 51 47 41 35 29 18 7 1 4 12 18 18 13 8 6 6 7 8 8 8 8 8
54 50 46 45 48 53 58 59 56 54 53 53 53 54 54 53 52 50 49 48 49 49 46 39 33 28 19 6 0 4 13 19 17 13 9 7 6 6 6 9 11 12 12
45 43 40 41 46 50 54 56 54 52 52 51 51 52 53 51 48 46 44 44 44 44 42 36 30 27 19 7 0 4 13 17 16 14 12 8 5 3 3 6 10 10 10
34 33 31 35 40 43 45 48 48 48 49 50 49 49 49 46 42 41 40 40 40 39 37 34 29 25 17 7 1 3 9 14 16 17 16 10 3 1 1 3 6 6 5
26 24 23 26 33 36 36 37 39 40 42 45 47 46 44 40 37 36 37 38 38 36 33 31 29 24 16 8 3 2 3 8 14 17 15 9 3 0 0 1 2 2 1
20 19 18 21 26 30 31 31 33 35 36 37 38 38 38 36 35 34 35 37 38 35 32 30 29 24 19 14 8 3 1 3 9 13 10 5 1 0 0 0 0 0 1
18 19 20 20 21 23 26 27 30 33 34 32 31 30 31 32 33 32 32 33 34 34 32 30 28 26 23 19 13 7 4 3 5 6 4 1 0 0 0 0 0 0 1
17 20 20 19 17 17 18 22 27 31 32 30 28 26 25 27 29 28 25 25 24 24 24 23 22 22 20 15 11 8 5 4 3 2 1 0 0 0 0 0 0 1 1
18 19 19 17 14 13 14 19 24 28 30 29 26 24 24 25 26 24 20 17 14 13 12 13 15 17 13 8 5 5 4 3 2 1 0 0 0 0 0 0 1 2 2
Wind_Speed
10 10 10 10 10 10 10 9 9 8 7 5 5 5 4 4 4 4 4 5 4 4 4 3 3 4 3 3 4 3 4 4 3 2 2 3 4 4 3 4 3 4 4
11 11 11 11 12 11 11 11 10 10 9 6 4 3 3 3 3 3 3 5 5 5 5 4 4 4 3 4 4 4 4 3 3 3 3 3 3 4 4 3 4 4 4
12 12 12 12 12 12 12 10 10 10 9 8 6 4 4 4 4 4 4 4 5 5 5 5 5 4 5 4 5 5 6 4 4 4 4 3 2 1 3 4 4 4 3
12 12 13 13 13 12 12 11 11 10 9 9 8 8 6 5 4 4 3 4 4 4 4 5 5 5 4 4 6 6 5 5 4 4 4 5 3 3 2 3 4 4 4
12 13 13 13 12 12 11 11 11 10 10 9 9 8 7 5 4 4 4 4 4 4 4 4 4 4 4 4 5 4 5 5 5 4 4 4 4 6 5 4 3 3 4
11 11 12 11 11 11 11 10 11 10 10 10 10 9 8 6 5 5 4 4 4 4 4 5 4 4 4 4 5 5 6 5 5 5 4 4 4 4 4 5 4 4 3
11 12 12 12 12 12 12 11 11 10 10 10 10 9 9 8 7 6 5 4 3 3 4 4 4 4 4 4 4 4 5 5 5 5 4 4 4 4 4 5 4 4 3
10 11 12 12 12 12 12 11 11 10 10 10 9 8 8 7 5 6 5 4 4 3 3 4 4 4 4 4 4 4 5 4 5 6 5 5 4 4 4 4 4 4 4
9 10 11 11 11 11 11 11 11 10 10 10 9 8 8 7 6 5 6 5 4 4 4 4 4 4 4 4 4 3 4 4 5 5 5 5 3 4 4 4 4 4 4
8 9 9 10 10 11 10 10 10 10 10 9 9 7 8 8 7 6 6 5 5 4 5 6 5 5 5 4 4 4 3 4 4 4 4 4 4 3 3 4 4 4 4
7 7 8 8 9 10 10 10 10 9 9 9 8 7 7 8 7 7 7 6 6 6 6 6 6 5 5 4 4 4 4 4 4 4 4 4 3 3 3 3 3 3 3
5 7 7 7 8 9 9 10 9 9 9 8 8 8 7 7 7 7 7 6 6 6 6 6 6 5 5 5 5 5 4 4 4 4 4 4 3 3 3 2 3 2 2
5 6 7 6 6 7 7 8 8 8 8 8 8 8 8 8 7 7 6 6 6 6 6 6 5 5 5 5 5 4 4 4 4 3 4 3 3 3 2 3 2 2 2
4 5 5 5 5 5 6 6 6 6 7 7 8 8 8 7 7 7 7 6 6 6 6 6 6 5 5 5 5 5 5 4 3 3 3 3 3 3 3 3 3 3 3
4 4 4 4 4 4 5 5 5 5 6 6 7 7 7 6 6 6 6 6 6 7 7 6 6 6 6 5 6 6 6 5 4 4 4 3 1 2 3 3 2 3 3
3 3 3 3 3 4 4 5 5 5 5 5 6 6 6 6 6 6 6 6 6 6 6 6 6 6 5 4 4 5 5 5 5 4 4 3 4 3 3 1 2 2 3
2 2 2 2 2 3 3 4 4 4 4 4 4 5 5 6 6 6 6 6 6 5 6 6 6 5 3 4 5 6 5 5 4 4 4 4 3 4 3 4 5 3 1
2 2 1 1 1 2 3 3 4 5 4 4 4 5 5 5 6 6 6 5 5 4 5 5 5 5 4 5 5 6 7 5 5 5 5 4 3 3 2 3 4 3 3
3 2 2 2 2 1 1 3 3 4 4 4 4 4 4 4 4 5 5 4 4 4 4 4 4 5 4 5 5 6 6 5 5 5 5 5 4 3 2 4 3 3 3
4 3 2 2 2 2 1 1 2 3 3 3 3 3 3 3 4 4 3 3 3 4 4 3 4 4 4 6 7 7 5 5 5 5 5 4 3 5 4 5 3 3 2
3 3 2 2 2 2 1 1 1 1 1 1 2 2 3 3 3 3 3 3 3 3 3 3 4 4 4 6 8 7 5 4 4 3 4 4 7 6 5 4 2 1 1
3 3 2 2 2 1 0 0 1 0 1 1 1 2 2 2 2 3 3 4 4 4 4 4 4 3 4 4 6 8 7 5 4 3 2 4 8 7 6 3 2 3 3
4 3 3 2 2 2 1 1 1 1 2 2 2 2 2 2 2 3 4 4 4 4 4 4 4 3 3 4 6 9 8 6 4 1 3 5 7 7 5 5 5 5 4
4 4 3 2 2 2 2 2 2 2 2 2 2 2 3 2 2 2 3 3 3 4 4 4 3 3 3 3 3 4 5 6 5 3 5 7 6 4 3 5 5 4 3
4 4 3 3 3 3 3 3 2 2 2 2 2 2 2 2 2 1 0 1 1 2 3 2 2 2 2 0 0 2 3 3 3 3 3 3 4 4 4 3 3 3 3
4 4 3 3 3 3 3 3 2 2 2 2 2 2 2 2 2 2 2 5 3 4 3 3 3 1 2 1 2 2 3 3 4 4 3 3 3 3 3 3 3 2 2
Wind_Direction
199 192 193 192 188 188 188 191 195 185 188 190 195 193 194 198 200 206 200 204 207 198 217 231 193 218 212 222 222 228 217 223 212 230 228 223 222 220 221 231 239 219 218
194 190 192 191 191 190 190 191 195 192 196 191 198 202 206 211 206 214 199 213 211 212 208 220 222 215 216 220 227 231 244 234 212 236 240 231 208 205 216 215 222 234 226
199 191 193 194 193 192 193 194 196 194 199 193 194 192 196 217 202 204 201 210 214 217 229 223 230 225 230 220 225 226 232 240 231 234 255 266 258 224 200 217 224 227 233
201 194 192 194 195 193 190 193 193 196 194 197 203 204 209 213 209 207 196 199 211 221 222 230 234 236 243 237 236 222 235 240 243 234 241 260 288 274 252 219 214 219 234
198 195 194 193 193 189 187 186 188 192 193 200 202 210 218 218 208 201 194 212 205 215 226 232 236 234 241 245 255 246 243 238 243 244 242 242 238 247 261 262 246 233 233
193 191 189 186 187 185 183 182 184 190 192 197 203 210 216 217 215 212 205 211 203 206 211 226 230 236 246 242 246 248 238 244 250 255 251 247 249 252 254 263 261 254 243
188 185 184 183 184 184 183 181 183 188 192 196 203 207 212 211 212 219 214 224 219 209 208 227 226 231 236 243 244 242 251 243 245 248 255 255 254 260 259 264 265 266 254
183 183 182 182 182 183 183 182 182 187 191 195 201 205 209 214 211 209 228 220 233 232 214 219 225 230 235 241 236 243 240 240 245 248 249 254 252 254 255 259 266 265 255
176 177 178 180 180 182 183 183 182 188 192 194 196 202 206 216 215 204 216 223 221 221 207 215 223 227 233 243 247 248 253 252 252 253 242 250 255 256 259 250 246 262 265
172 171 173 176 177 178 179 182 184 189 191 193 197 195 199 204 208 215 213 221 220 221 214 215 220 225 227 228 237 244 247 256 255 262 269 266 265 263 259 258 247 249 266
165 163 166 170 174 174 175 179 184 190 191 192 193 199 198 199 203 208 212 213 215 211 216 218 220 224 224 223 229 246 244 249 256 261 255 256 267 268 261 256 252 246 246
155 153 153 161 170 175 176 179 185 192 192 187 188 193 196 198 202 203 207 207 210 212 214 219 219 219 219 219 224 235 238 243 248 254 257 258 246 241 260 263 257 255 251
151 149 147 156 167 170 176 180 188 192 188 184 188 188 192 197 203 202 200 201 203 208 210 209 211 214 216 223 228 229 231 235 241 247 250 257 256 250 248 252 253 248 235
145 146 143 147 156 165 172 181 187 187 186 187 190 189 193 196 199 199 197 198 199 202 206 209 209 209 212 221 229 229 226 225 226 234 243 249 249 254 258 247 243 246 239
127 133 142 142 157 164 169 177 181 180 185 189 191 191 195 196 198 197 197 196 200 203 202 206 205 209 209 215 223 229 223 221 219 218 225 226 228 313 289 289 263 236 238
108 117 135 148 166 171 173 172 176 175 181 190 191 189 193 194 196 196 197 196 200 207 203 209 210 211 217 173 205 239 225 218 220 222 225 207 194 197 210 268 316 304 256
79 94 113 146 172 179 180 176 172 172 177 187 189 186 194 197 199 199 194 196 199 200 200 209 213 215 203 165 198 227 234 220 224 223 220 225 182 196 204 181 189 190 161
31 36 40 98 141 162 169 179 171 167 175 182 189 190 195 199 197 199 198 197 196 196 202 207 213 218 192 174 200 216 224 220 216 221 218 220 199 200 217 206 190 187 171
11 9 9 29 59 81 145 177 179 171 173 178 188 192 190 195 194 196 202 198 195 197 201 200 212 219 195 175 193 213 221 216 214 215 211 212 201 151 192 222 202 187 164
4 3 22 41 46 43 52 181 170 167 183 190 190 182 176 184 191 190 200 202 200 199 196 200 214 218 211 180 190 208 225 214 212 204 199 196 207 152 183 216 210 207 191
360 6 19 41 40 32 27 197 169 169 180 188 177 170 178 193 197 184 184 198 217 210 203 209 216 212 210 180 187 201 229 226 218 209 203 170 156 161 180 222 230 187 206
357 2 6 13 7 358 315 210 197 175 180 177 170 169 181 204 187 183 193 197 208 211 207 216 222 207 195 190 185 197 219 254 229 223 206 142 146 160 173 197 153 151 215
339 339 339 340 337 322 296 279 249 220 203 187 189 192 192 195 207 195 205 207 204 215 217 219 220 214 201 182 180 193 202 220 232 211 99 121 148 160 173 180 175 196 216
321 322 318 323 331 324 305 288 275 235 217 200 197 195 193 196 194 209 213 218 218 221 228 228 231 224 208 204 186 188 184 189 201 186 137 147 162 179 155 160 181 212 223
302 301 306 308 308 310 309 310 303 261 227 218 218 226 221 195 197 184 359 266 31 328 282 270 262 262 251 264 248 216 197 192 177 169 168 171 170 177 178 180 189 202 202
288 286 284 282 288 297 305 313 305 276 246 237 233 238 232 196 195 166 123 58 62 51 30 359 326 358 51 101 139 154 152 147 159 181 184 187 194 194 188 184 185 190 201